Whidbey Island, WA

8:39 PM PDT on May 23, 2017 (GMT -0700)
Whidbey Island Naval Air Station

Weather History for KNUW - May, 2013

Change the Weather History Date:

Tuesday, May 21, 2013

  Actual Average Record
Temperature  
Mean Temperature 50 °F -  
Max Temperature 54 °F 57 °F 66 °F (2000)
Min Temperature 46 °F 44 °F 41 °F (2001)
Degree Days  
Heating Degree Days 16    
Moisture  
Dew Point 45 °F    
Average Humidity 86    
Maximum Humidity 97    
Minimum Humidity 69    
Precipitation  
Precipitation 0.29 in - - ()
Sea Level Pressure  
Sea Level Pressure 29.85 in    
Wind  
Wind Speed 5 mph (WSW)    
Max Wind Speed 10 mph    
Max Gust Speed -    
Visibility 6 miles    
Events Rain    
Averages and records for this station are not official NWS values.
T = Trace of Precipitation, MM = Missing Value Source: NWS Daily Summary

Daily Weather History Graph

Daily Weather History Graph

Search for Another Location

Airport or City:

Trip Planner

Search our weather history database for the weather conditions in past years. The results will help you decide how hot, cold, wet, or windy it might be!

Date:

Astronomy

May. 21, 2013 Rise Set
Actual Time 5:23 AM PDT 8:52 PM PDT
Civil Twilight 4:44 AM PDT 9:30 PM PDT
Nautical Twilight 3:53 AM PDT 10:22 PM PDT
Astronomical Twilight 2:44 AM PDT 11:32 PM PDT
Moon 4:56 PM PDT (5/21) 3:12 AM PDT (5/21)
Length of Visible Light 16h 46m
Length of Day
15h 28m
Waxing Gibbous, 85% of the Moon is Illuminated
May 21
Waxing Gibbous
May 24
Full
May 31
Last Quarter
Jun 8
New
Jun 16
First Quarter

Hourly Weather History & Observations

Time (PDT) Temp. Windchill Dew Point Humidity Pressure Visibility Wind Dir Wind Speed Gust Speed Precip Events Conditions
12:56 AM 48.9 °F - 46.9 °F 93% 29.93 in 10.0 mi West 8.1 mph - 0.00 in   Overcast
1:27 AM 48.2 °F - 46.4 °F 93% 29.89 in 4.0 mi West 8.1 mph - 0.01 in Rain Light Rain
1:56 AM 48.9 °F - 46.0 °F 90% 29.91 in 4.0 mi West 9.2 mph - 0.04 in Rain Rain
2:56 AM 48.0 °F - 46.0 °F 93% 29.89 in 5.0 mi WSW 4.6 mph - 0.12 in Rain Rain
3:56 AM 46.9 °F - 46.0 °F 97% 29.87 in 6.0 mi WSW 5.8 mph - 0.06 in Rain Light Rain
4:56 AM 48.0 °F - 46.0 °F 93% 29.86 in 7.0 mi South 3.5 mph - 0.01 in Rain Light Rain
5:56 AM 48.0 °F - 46.0 °F 93% 29.86 in 6.0 mi SSW 4.6 mph - 0.00 in   Overcast
6:38 AM 48.2 °F - 46.4 °F 93% 29.84 in 5.0 mi SW 3.5 mph - 0.00 in Rain Light Rain
6:56 AM 48.0 °F - 46.0 °F 93% 29.86 in 5.0 mi WNW 10.4 mph - 0.01 in Rain Light Rain
7:18 AM 46.4 °F 41.9 °F 44.6 °F 93% 29.85 in 6.0 mi West 9.2 mph - 0.01 in Rain Light Rain
7:56 AM 46.0 °F 41.4 °F 44.1 °F 93% 29.86 in 6.0 mi West 9.2 mph - 0.01 in Rain Light Rain
8:15 AM 46.4 °F 44.3 °F 44.6 °F 93% 29.84 in 1.5 mi West 4.6 mph - 0.01 in Rain Light Rain
8:56 AM 46.0 °F 44.8 °F 45.0 °F 96% 29.84 in 1.5 mi WNW 3.5 mph - 0.02 in Rain Light Rain
9:56 AM 46.9 °F - 45.0 °F 93% 29.84 in 1.5 mi Calm Calm - 0.02 in Rain Light Rain
10:15 AM 46.4 °F - 44.6 °F 93% 29.82 in 3.0 mi Calm Calm - 0.00 in Rain Light Rain
10:56 AM 48.0 °F - 44.1 °F 86% 29.84 in 3.0 mi SW 3.5 mph - 0.00 in Rain Light Rain
11:44 AM 48.2 °F - 44.6 °F 87% 29.81 in 3.0 mi Calm Calm - 0.00 in   Overcast
11:56 AM 48.9 °F - 43.0 °F 80% 29.83 in 3.0 mi Calm Calm - 0.00 in   Overcast
12:56 PM 50.0 °F - 44.1 °F 80% 29.84 in 8.0 mi Calm Calm - N/A   Overcast
1:56 PM 51.1 °F - 45.0 °F 80% 29.83 in 8.0 mi Calm Calm - N/A   Overcast
2:56 PM 51.1 °F - 45.0 °F 80% 29.83 in 8.0 mi West 4.6 mph - N/A   Overcast
3:56 PM 51.1 °F - 44.1 °F 77% 29.83 in 10.0 mi WNW 4.6 mph - N/A   Overcast
4:56 PM 51.1 °F - 44.1 °F 77% 29.82 in 10.0 mi Calm Calm - N/A   Mostly Cloudy
5:56 PM 53.1 °F - 43.0 °F 69% 29.82 in 10.0 mi NW 4.6 mph - N/A   Mostly Cloudy
6:56 PM 52.0 °F - 43.0 °F 71% 29.83 in 10.0 mi Calm Calm - N/A   Mostly Cloudy
7:56 PM 48.9 °F - 43.0 °F 80% 29.84 in 10.0 mi Calm Calm - N/A   Mostly Cloudy
8:56 PM 50.0 °F - 42.1 °F 74% 29.85 in 10.0 mi WSW 3.5 mph - N/A   Mostly Cloudy
9:56 PM 46.9 °F - 41.0 °F 80% 29.85 in 10.0 mi Calm Calm - N/A   Mostly Cloudy
10:56 PM 46.9 °F - 42.1 °F 83% 29.86 in 10.0 mi SW 3.5 mph - N/A   Mostly Cloudy
11:56 PM 48.0 °F - 44.1 °F 86% 29.88 in 10.0 mi Calm Calm - N/A   Overcast